Home > Weather > Madrid > Past weeks

Flag for Spain Weather for the Past 2 Weeks in Madrid, Spain

Now
37 °F

Clear.


Feels Like: 37 °F
Forecast: 31 / 50 °F
Wind: 1 mph from West

Location: Madrid / Cuatro Vientos

Current Time: Feb 5, 2016 at 11:32:09 PM

Latest Report: Feb 5, 2016 at 10:30 PM


Visibility: 10 mi

Pressure: 30.27 "Hg (27.90 "Hg at 658m altitude)

Humidity: 87%

Dew point: 34 °F

Location of MadridLocation

Historic Weather in Madrid — Graph

°F

Madrid Temperature Yesterday

Maximum temperature yesterday: 55 °F (at 4:00 PM)
Minimum temperature yesterday: 37 °F (at 7:00 AM)
Average temperature yesterday: 47 °F

High & Low Weather Summary for the Past Weeks

 TemperatureHumidityPressure
High66 °F (Jan 24, 4:00 PM)100% (Jan 22, 7:00 AM)30.63 "Hg (Jan 22, 7:00 AM)
Low36 °F (Feb 5, 7:30 AM)29% (Feb 3, 4:30 PM)30.27 "Hg (Feb 5, 4:00 PM)
Average51 °F76%30.45 "Hg
* Reported Jan 22 7:00 AM — Feb 5 10:00 PM, Madrid, Weather by CustomWeather, © 2016

Note: Actual official high and low records may vary slightly from our data, if they occured in-between our weather recording intervals... More about our weather records

Advertising

Madrid Weather History for the Previous 24 Hours

 ConditionsComfort  
Time TempWeatherWind HumidityBarometerVisibility
10:00 PM
Fri, Feb 5
41 °FClear.No wind81%30.27 "Hg10 mi
9:30 PM41 °FClear.1 mph81%30.27 "Hg10 mi
9:00 PM43 °FClear.No wind81%30.27 "Hg10 mi
8:30 PM45 °FClear.1 mph71%30.27 "Hg10 mi
8:00 PM45 °FClear.No wind71%30.27 "Hg10 mi
7:30 PM46 °FClear.No wind66%30.27 "Hg10 mi
7:00 PM46 °FClear.No wind66%30.27 "Hg10 mi
6:30 PM48 °FSunny.1 mph62%30.27 "Hg10 mi
6:00 PM50 °FSunny.2 mph62%30.27 "Hg10 mi
5:30 PM52 °FPassing clouds.3 mph58%30.27 "HgN/A
5:00 PM52 °FSunny.No wind54%30.27 "Hg10 mi
4:30 PM52 °FSunny.1 mph54%30.27 "Hg10 mi
4:00 PM55 °FSunny.No wind51%30.27 "Hg10 mi
3:30 PM52 °FPassing clouds.2 mph58%30.30 "HgN/A
3:00 PM54 °FPassing clouds.1 mph54%30.30 "HgN/A
2:30 PM52 °FPassing clouds.3 mph58%30.33 "HgN/A
2:00 PM52 °FPassing clouds.3 mph58%30.33 "HgN/A
1:30 PM50 °FPassing clouds.3 mph62%30.36 "HgN/A
1:00 PM46 °FPassing clouds.3 mph71%30.36 "HgN/A
12:30 PM46 °FScattered clouds.2 mph71%30.36 "HgN/A
12:00 PM46 °FScattered clouds.7 mph71%30.39 "HgN/A
11:30 AM46 °FScattered clouds.2 mph66%30.39 "HgN/A
11:00 AM45 °FPassing clouds.3 mph66%30.39 "HgN/A
10:30 AM45 °FPassing clouds.1 mph66%30.39 "HgN/A
10:00 AM43 °FPassing clouds.1 mph71%30.39 "HgN/A
9:30 AM39 °FPassing clouds.3 mph81%30.39 "HgN/A
9:00 AM37 °FSunny.1 mph93%30.39 "Hg10 mi
8:30 AM36 °FSunny.No wind93%30.39 "Hg10 mi
8:00 AM36 °FPassing clouds.3 mph93%30.39 "HgN/A
7:30 AM36 °FPassing clouds.3 mph87%30.39 "HgN/A
7:00 AM37 °FPassing clouds.2 mph93%30.39 "HgN/A
Weather by CustomWeather, © 2016

See weather overviewHow to use our weather pages